Location: Roussillon
(43.9008°N, 5.2947°E)
Time: 07:46:32
(UTC+00:00)

Cosmos 2322 Rocket - Pass Details

Date: 07 June 2020
Orbit: 834 x 850 km, 71.0° (Epoch: 04 July)

Event Time Altitude Azimuth Distance (km) Brightness Sun altitude
Exits shadow 03:11:24 - 251° (WSW) 2,750 4.3 -7.3°
Reaches altitude 10° 03:12:25 10° 257° (WSW) 2,445 4.1 -7.2°
Maximum altitude 03:16:52 24° 310° (NW) 1,682 3.7 -6.6°
Drops below altitude 10° 03:21:20 10° 3° (N) 2,453 5.3 -6.0°
Sets 03:24:17 0° 17° (NNE) 3,391 6.4 -5.6°
